KIND Airport Diagram

We have created a template for each of the higher traffic airports in the vZID airspace. They include KCMH, KCRW, KCVG, KDAY, KIND, KLEX and KSDF. You wil find usefull information including the airport diagram, weather, and specific airport procedures.

KIND Weather

[Source: ADDS]
METAR
KIND 220754Z 14008KT 10SM SCT250 14/09 A3011 RMK AO2 SLP192 T01440094 =
TAF
KIND 220805Z 2208/2312 16008KT P6SM SCT250 WS020/19035KT FM221500 16009KT P6SM BKN100 WS020/19030KT FM221600 17010G19KT P6SM BKN110 FM222100 17010KT P6SM VCSH BKN080 FM230000 17007KT 6SM -SHRA BKN045 FM230600 18004KT P6SM SHRA OVC015 =

KIND Operations

Calm Wind Configuration is runways 23L and 23R

Runway 23L typically departs south and east

Runway 23R typicall departs north and west

New Scenery is available at FlightSim.com and Blueprint Simulations. On initial contact, arriving aircraft should notify the the controller which scenery they have.

FedEx pilots should expect runway 23L or 5R.

 

JSN Epic template designed by JoomlaShine.com